Location: *
(37.5724°S, 58.0067°E)
Time: 08:17:58
(UTC+00:00)

Envisat - Pass Details

Date: 02 December 2022
Orbit: 763 x 765 km, 98.2° (Epoch: 07 February)

Event Time Altitude Azimuth Distance (km) Brightness Sun altitude
Rises 22:05:11 0° 63° (ENE) 3,233 6.3 -23.2°
Reaches altitude 10° 22:08:36 10° 87° (E) 2,317 5.8 -22.9°
Maximum altitude 22:11:07 14° 117° (ESE) 2,060 6.0 -22.6°
Drops below altitude 10° 22:13:39 10° 147° (SSE) 2,330 6.6 -22.3°
Sets 22:17:06 0° 171° (S) 3,265 7.3 -21.9°
